www.pogodaiklimat.ru

Погода и климат >> Архив погоды >> Австрия >> Санкт-Себастьян


ПОГОДА в Санкт-Себастьяне

  • Прогноз погоды в Санкт-Себастьяне
  • Монитор погоды в Санкт-Себастьяне

АРХИВ ПОГОДЫ в Санкт-Себастьяне

Время (UTC), дата Ветер
(напр.,м/с)
 
Видим.   Явления Облачность Т
(С)
Тd
(С)
f
(%)
Тe
(С)
Тes
(С)
Комфортность P
(гПа)
Po
(гПа)
Тmin
(С)
Tmax
(С)
R
(мм)
R24
(мм)
S
(см)
13 15.09 С 4 н/о н/о +23.7 +10.3 43 +25 +25 комфорт 1020.5 925.1
14 15.09 С 4 н/о н/о +23.6 +11.3 46 +25 +25 комфорт 1019.8 924.5
15 15.09 С 3 н/о н/о +23.3 +12.2 50 +26 +26 жарко 1019.5 924.1 0.0
16 15.09 С 2 н/о н/о +23.1 +12.4 51 +26 +26 жарко 1019.0 923.6
17 15.09 штиль 0 н/о н/о +19.8 +13.2 66 +21 +21 комфорт 1019.8 923.4
18 15.09 ЮВ 1 н/о н/о +16.5 +12.7 78 +17 +17 1021.1 923.5 +10.1 +23.8 0.0
19 15.09 ЮВ 3 н/о н/о +15.4 +12.5 83 +15 +15 1021.7 923.7
20 15.09 ЮВ 3 н/о н/о +14.1 +11.8 86 +13 +13 1022.5 924.0
21 15.09 ЮВ 2 н/о н/о +12.6 +11.0 90 +12 +12 1023.3 924.2
22 15.09 ЮВ 3 н/о н/о +12.1 +11.0 93 +10 +10 1023.4 924.1
23 15.09 ЮВ 3 н/о н/о +11.1 +10.2 94 +9 +9 1023.8 924.1
00 16.09 ЮВ 4 н/о н/о +10.3 +9.6 95 +8 +8 1023.7 923.7
01 16.09 ЮВ 3 н/о н/о +10.1 +9.2 94 +8 +8 1023.3 923.3
02 16.09 ЮВ 2 н/о н/о +10.0 +9.0 93 +8 +8 1023.2 923.2
03 16.09 ЮВ 4 н/о н/о +9.0 +8.4 96 +6 +6 1023.3 922.9
04 16.09 ЮВ 3 н/о н/о +9.1 +8.5 96 +6 +6 1022.8 922.5
05 16.09 ЮВ 4 н/о н/о +9.3 +8.6 95 +6 +6 1022.7 922.5
06 16.09 ЮВ 3 н/о н/о +9.7 +9.0 95 +7 +7 1022.4 922.3 +8.9 +16.7
07 16.09 ЮВ 4 н/о н/о +11.8 +10.3 91 +10 +10 1021.5 922.3
08 16.09 ЮВ 3 н/о н/о +14.7 +11.6 82 +14 +14 1020.5 922.3
09 16.09 штиль 0 н/о н/о +18.7 +13.6 72 +19 +19 1019.0 922.3
10 16.09 З 3 н/о н/о +21.5 +13.4 60 +24 +24 комфорт 1017.7 922.0
11 16.09 З 5 н/о н/о +21.8 +12.3 55 +24 +24 комфорт 1017.0 921.4
12 16.09 СЗ 4 н/о н/о +22.4 +12.6 54 +25 +25 комфорт 1015.8 920.5
13 16.09 СЗ 4 н/о н/о +23.0 +13.0 53 +26 +26 жарко 1015.0 920.0
14 16.09 С 4 н/о н/о +21.6 +13.8 61 +24 +24 комфорт 1015.2 919.8
15 16.09 С 2 н/о н/о +21.8 +14.4 63 +25 +25 комфорт 1015.1 919.8 0.0
16 16.09 С 2 н/о н/о +20.2 +14.0 68 +23 +23 комфорт 1015.8 919.9
17 16.09 СВ 1 н/о н/о +19.1 +13.9 72 +21 +21 комфорт 1015.7 919.5
18 16.09 В 1 н/о н/о +17.2 +13.9 81 +18 +18 1016.4 919.5 +9.6 +23.9 0.0
19 16.09 штиль 0 н/о н/о +16.4 +13.6 84 +16 +16 1016.8 919.6
20 16.09 СЗ 1 н/о н/о +15.8 +13.7 87 +16 +16 1017.0 919.6
21 16.09 В 1 н/о в посл. час осадки н/о +15.2 +14.3 94 +16 +16 1016.8 919.3 0.6
22 16.09 ЮЗ 2 н/о осадки н/о +15.1 +13.9 93 +15 +15 1017.6 919.9 2
23 16.09 ЮВ 2 н/о осадки н/о +14.8 +14.4 97 +14 +14 1017.4 919.7 2
00 17.09 ЮВ 3 н/о ливневой дождь н/о +14.6 +14.1 97 +14 +14 1016.6 918.9 5
01 17.09 ЮВ 1 н/о н/о +14.5 +14.1 97 +15 +15 1016.1 918.4 0.0
02 17.09 ЮВ 2 н/о н/о +14.1 +13.8 98 +13 +13 1016.3 918.4
03 17.09 СВ 1 н/о в посл. час осадки н/о +14.3 +13.7 96 +15 +15 1016.2 918.4 0.1
04 17.09 Ю 2 н/о н/о +14.1 +13.6 97 +13 +13 1016.4 918.5 0.0
05 17.09 ЮВ 1 н/о н/о +13.5 +13.1 97 +14 +14 1016.6 918.5
06 17.09 штиль 0 н/о {осадки} н/о +13.4 +12.8 96 +13 +13 1016.9 918.7 +13.0 +17.2 5
07 17.09 В 1 н/о н/о +14.6 +13.4 93 +15 +15 1016.7 918.9
08 17.09 СЗ 1 н/о н/о +15.5 +12.2 81 +16 +16 1016.5 919.0 0.0
09 17.09 СЗ 1 н/о н/о +16.4 +11.5 73 +17 +17 1016.0 918.8 0.0
10 17.09 СЗ 2 н/о н/о +16.9 +11.8 72 +17 +17 1015.6 918.6
11 17.09 З 2 н/о н/о +17.4 +10.4 63 +18 +18 1015.5 918.6
12 17.09 СЗ 4 н/о н/о +18.1 +10.1 60 +18 +18 1014.7 918.1 0.0
13 17.09 З 5 н/о н/о +18.4 +9.6 56 +18 +18 1014.1 917.7
14 17.09 СЗ 5 н/о н/о +18.8 +9.5 55 +19 +19 1013.3 917.1
15 17.09 С 4 н/о н/о +17.7 +9.9 60 +17 +17 1013.5 916.9 0.0
16 17.09 СЗ 5 н/о н/о +16.1 +10.8 71 +15 +15 1014.2 917.1
17 17.09 С 3 н/о н/о +15.6 +10.6 72 +15 +15 1014.4 917.1 0.0
18 17.09 С 4 н/о н/о +15.2 +10.8 75 +14 +14 1015.1 917.6 +13.2 +19.1 0.0
19 17.09 СЗ 6
{13}
н/о н/о +15.1 +9.4 69 +14 +14 1015.8 918.2 0.0
20 17.09 СЗ 7 н/о н/о +15.1 +7.8 62 +13 +13 1016.1 918.4
21 17.09 СЗ 8
{15}
н/о н/о +14.0 +6.9 62 +12 +12 1017.0 918.8 0.0
22 17.09 СЗ 6
{15}
н/о н/о +12.8 +5.7 62 +11 +11 1017.8 919.1
23 17.09 СЗ 7
{15}
н/о н/о +12.6 +5.0 60 +10 +10 1018.3 919.5
00 18.09 СЗ 5
{15}
н/о н/о +12.2 +5.1 62 +10 +10 1018.8 919.8 0.0
01 18.09 СЗ 5 н/о н/о +11.5 +4.5 62 +9 +9 1019.2 919.9
02 18.09 СЗ 5
{15}
н/о н/о +10.8 +4.3 64 +8 +8 1019.8 920.2
03 18.09 СЗ 6
{15}
н/о н/о +10.4 +3.6 63 +7 +7 1020.5 920.7
04 18.09 СЗ 6 н/о н/о +9.9 +3.7 65 +7 +7 1021.2 921.2
05 18.09 СЗ 5 н/о н/о +9.5 +3.3 65 +6 +6 1022.2 922.0
06 18.09 СЗ 6
{15}
н/о н/о +8.9 +3.4 68 +5 +5 1022.9 922.4 +8.9 +15.8 0.0
07 18.09 СЗ 4 н/о н/о +8.9 +3.2 67 +6 +6 1023.6 923.0
08 18.09 СЗ 4 н/о н/о +9.6 +2.9 63 +7 +7 1023.8 923.4
09 18.09 СЗ 4 н/о н/о +10.5 +3.1 60 +8 +8 1023.3 923.3
10 18.09 СЗ 4 н/о н/о +11.8 +3.0 55 +10 +10 1023.0 923.4 0.0
11 18.09 С 4 н/о н/о +13.3 +2.8 49 +12 +12 1022.2 923.2
12 18.09 С 4 н/о н/о +13.7 +1.6 44 +12 +12 1021.5 922.7 0.0
13 18.09 С 6 н/о н/о +13.9 +0.3 39 +12 +12 1021.2 922.4
14 18.09 С 4 н/о н/о +14.3 +1.4 41 +13 +13 1020.9 922.3
15 18.09 С 4 н/о н/о +13.9 +0.3 39 +13 +13 1020.9 922.2
16 18.09 С 3 н/о н/о +13.1 -0.3 40 +12 +12 1021.3 922.3
17 18.09 С 2 н/о н/о +10.6 +0.8 51 +10 +10 1022.6 922.6
18 18.09 С 1 н/о н/о +7.2 +2.1 70 +7 +7 1024.5 923.2 +7.2 +14.4 0.0
19 18.09 штиль 0 н/о н/о +5.6 +1.7 76 +5 +5 1025.7 923.8
20 18.09 В 1 н/о н/о +4.6 +1.3 79 +3 +3 1026.5 924.1
21 18.09 штиль 0 н/о н/о +3.4 +0.8 83 +2 +2 1027.2 924.3
22 18.09 В 1 н/о н/о +3.3 +1.0 85 +2 +2 1027.1 924.2
23 18.09 штиль 0 н/о н/о +2.2 +0.5 89 +1 +1 1027.7 924.4
00 19.09 В 1 н/о н/о +1.8 +0.1 88 0 0 1028.1 924.6
01 19.09 ЮВ 2 н/о н/о +2.2 +0.6 89 -1 -1 1027.7 924.4
02 19.09 ЮВ 2 н/о н/о +2.0 +0.4 89 -1 -1 1027.6 924.2
03 19.09 ЮВ 2 н/о н/о +1.1 -0.2 91 -2 -2 1028.2 924.4
04 19.09 ЮВ 2 н/о н/о +0.8 -0.6 90 -3 -3 1028.4 924.5
05 19.09 ЮВ 1 н/о н/о +0.6 -0.8 90 -1 -1 1028.8 924.8
06 19.09 ЮВ 1 н/о н/о +1.2 -0.3 90 -1 -1 1029.0 925.2 +0.1 +8.2
07 19.09 ЮВ 2 н/о н/о +3.0 +0.6 84 0 0 1028.8 925.6
08 19.09 ЮВ 2 н/о н/о +6.0 +1.9 75 +4 +4 1027.9 925.9
09 19.09 С 1 н/о н/о +9.2 +2.3 62 +9 +9 1026.5 925.7
10 19.09 С 3 н/о н/о +9.7 +0.9 54 +8 +8 1026.2 925.6 0.0
11 19.09 С 4 н/о н/о +10.5 +0.2 49 +8 +8 1025.9 925.6
12 19.09 С 4 н/о н/о +11.1 +1.2 50 +9 +9 1025.6 925.5 0.0
13 19.09 СЗ 4 н/о н/о +10.7 -0.9 44 +9 +9 1026.0 925.7
14 19.09 С 4 н/о н/о +12.0 -0.4 42 +10 +10 1025.5 925.7
15 19.09 СЗ 4 н/о н/о +11.1 -0.3 45 +9 +9 1025.9 925.8
16 19.09 СЗ 3 н/о н/о +10.0 +0.3 51 +8 +8 1026.3 925.8
17 19.09 СЗ 2 н/о н/о +8.8 +1.2 59 +7 +7 1027.0 926.0
18 19.09 штиль 0 н/о н/о +7.2 +2.4 72 +7 +7 1028.1 926.5 +0.5 +12.0 0.0
19 19.09 С 1 н/о н/о +6.6 +2.7 76 +6 +6 1029.2 927.3
20 19.09 С 1 н/о н/о +5.2 +1.9 79 +4 +4 1030.4 927.9
21 19.09 В 1 н/о н/о +4.4 +1.2 80 +3 +3 1030.9 928.0
22 19.09 штиль 0 н/о н/о +4.1 +1.0 80 +3 +3 1031.1 928.1
23 19.09 ЮВ 1 н/о н/о +4.3 +1.0 79 +3 +3 1031.0 928.1
00 20.09 ЮВ 2 н/о н/о +3.5 +1.4 86 +1 +1 1031.2 928.0
01 20.09 ЮВ 1 н/о н/о +3.1 +1.0 86 +2 +2 1031.3 927.9
02 20.09 ЮВ 1 н/о н/о +2.0 +0.1 87 0 0 1031.4 927.6
03 20.09 ЮВ 2 н/о н/о +1.3 -0.2 90 -2 -2 1031.6 927.5
04 20.09 ЮВ 1 н/о н/о +0.4 -0.8 92 -2 -2 1031.8 927.4
05 20.09 ЮВ 2 н/о н/о +0.3 -0.7 93 -3 -3 1032.1 927.6
06 20.09 ЮВ 2 н/о н/о 0.0 -1.0 93 -4 -4 1032.2 927.6 -0.6 +7.4
07 20.09 ЮВ 3 н/о н/о +3.0 +0.6 84 -1 -1 1031.0 927.6
08 20.09 ЮВ 2 н/о н/о +6.8 +1.7 70 +5 +5 1029.7 927.8
09 20.09 штиль 0 н/о н/о +9.6 -2.5 43 +9 +9 1028.6 927.7
10 20.09 СЗ 2 н/о н/о +10.3 -0.6 47 +9 +9 1028.0 927.4
11 20.09 С 2 н/о н/о +11.6 -0.1 44 +11 +11 1027.0 926.9
12 20.09 С 2 н/о н/о +12.8 -1.8 36 +12 +12 1026.1 926.5
14 20.09 С 3 н/о н/о +13.5 +0.7 42 +13 +13 1025.2 925.9
15 20.09 С 4 н/о н/о +13.1 +1.6 46 +12 +12 1025.4 926.0
16 20.09 С 3 н/о н/о +12.2 +0.5 45 +11 +11 1026.0 926.2
17 20.09 С 2 н/о н/о +9.8 +1.0 54 +9 +9 1027.0 926.3
18 20.09 штиль 0 н/о н/о +6.9 +1.9 70 +6 +6 1028.6 926.8 -0.6 +14.0
19 20.09 Ю 1 н/о н/о +5.3 +1.6 77 +4 +4 1029.3 926.9
20 20.09 ЮВ 1 н/о н/о +3.7 +0.6 80 +2 +2 1030.4 927.3
21 20.09 ЮВ 1 н/о н/о +3.2 +0.9 85 +2 +2 1030.6 927.3
22 20.09 ЮВ 1 н/о н/о +2.0 -0.1 86 0 0 1031.1 927.3
23 20.09 ЮВ 2 н/о н/о +2.3 +0.6 89 -1 -1 1030.5 926.9
00 21.09 ЮВ 3 н/о н/о +2.0 +0.6 90 -2 -2 1030.3 926.6
01 21.09 ЮВ 2 н/о н/о +1.6 +0.2 90 -2 -2 1030.2 926.4
02 21.09 ЮВ 2 н/о н/о +1.3 0.0 91 -2 -2 1029.9 926.0
03 21.09 ЮВ 2 н/о н/о -0.8 -1.6 94 -5 -5 1030.4 925.7
04 21.09 ЮВ 2 н/о н/о -0.8 -1.7 94 -5 -5 1030.0 925.3
05 21.09 ЮВ 3 н/о н/о -0.6 -1.4 94 -6 -6 1029.8 925.2
06 21.09 ЮВ 3 н/о н/о 0.0 -0.9 94 -5 -5 1029.1 924.8 -1.2 +6.9
07 21.09 ЮВ 3 н/о н/о +4.2 +1.0 80 +1 +1 1027.4 924.8
08 21.09 ЮВ 2 н/о н/о +10.3 +4.9 69 +9 +9 1024.8 924.6
09 21.09 Ю 3 н/о н/о +14.0 +4.6 53 +13 +13 1023.1 924.3
10 21.09 ЮВ 5 н/о н/о +15.5 +3.2 44 +14 +14 1022.3 924.0
11 21.09 ЮВ 6 н/о н/о +16.3 +3.5 42 +15 +15 1021.7 923.7
12 21.09 Ю 5 н/о н/о +17.3 +3.6 40 +17 +17 1020.9 923.3
13 21.09 ЮВ 5 н/о н/о +17.9 +3.8 39 +18 +18 1020.3 923.0
14 21.09 ЮВ 5 н/о н/о +18.1 +4.7 41 +18 +18 1019.6 922.4
15 21.09 ЮВ 4 н/о н/о +17.8 +4.6 42 +18 +18 1019.1 921.9
16 21.09 ЮВ 4 н/о н/о +16.6 +4.8 46 +16 +16 1019.1 921.5
17 21.09 Ю 3 н/о н/о +13.8 +4.4 53 +13 +13 1020.0 921.4
18 21.09 ЮВ 1 н/о н/о +12.0 +4.8 61 +12 +12 1020.6 921.4 -0.3 +18.4
19 21.09 СВ 1 н/о н/о +11.9 +3.9 58 +12 +12 1020.5 921.2
20 21.09 С 1 н/о н/о +9.2 +4.1 70 +9 +9 1021.1 920.9
21 21.09 С 1 н/о н/о +7.8 +4.0 77 +7 +7 1021.2 920.5
22 21.09 ЮВ 1 н/о н/о +8.5 +4.0 73 +8 +8 1020.6 920.2
23 21.09 СВ 1 н/о н/о +7.4 +4.1 80 +7 +7 1020.3 919.6
00 22.09 СВ 1 н/о н/о +6.6 +3.7 82 +6 +6 1020.1 919.1
01 22.09 В 1 н/о н/о +7.6 +4.0 78 +7 +7 1019.4 918.8
02 22.09 штиль 0 н/о н/о +6.0 +3.6 85 +5 +5 1019.3 918.2
03 22.09 ЮВ 3 н/о н/о +8.5 +4.1 74 +6 +6 1017.5 917.4
04 22.09 ЮВ 2 н/о н/о +7.8 +3.9 76 +6 +6 1017.2 916.9
05 22.09 З 1 н/о н/о +6.3 +4.0 85 +5 +5 1017.4 916.6
06 22.09 ЮВ 2 н/о н/о +8.6 +4.3 74 +7 +7 1016.3 916.4 +5.5 +13.0
07 22.09 Ю 5 н/о н/о +13.0 +5.7 61 +11 +11 1014.6 916.3 0.0
08 22.09 Ю 5 н/о н/о +15.3 +6.1 54 +14 +14 1013.3 915.9
09 22.09 Ю 4 н/о н/о +17.0 +7.0 52 +17 +17 1012.4 915.6 0.0
10 22.09 Ю 4 н/о н/о +17.8 +7.1 49 +18 +18 1012.0 915.5
11 22.09 Ю 4 н/о н/о +18.4 +6.9 47 +19 +19 1011.3 915.1
12 22.09 Ю 5 н/о н/о +19.1 +8.1 49 +19 +19 1010.5 914.6 0.0

 

Местоположение метеостанции Санкт-Себастьян (Австрия): широта 47.80 долгота 15.30 высота над уровнем моря 872 м.

В архиве по умолчанию представлена погода в Санкт-Себастьяне за последнюю неделю. Архивные данные за месяц целиком и за предыдущие месяцы, начиная с января 2011 года, Вы можете получить, выбрав интересующий диапазон дат из раскрывающегося списка и нажав кнопку "Ввод!".


*Определитесь, кто Вы:
робот инопланетянин человек

Внимание! Время в таблицах - всемирное. Для получения местного времени необходимо прибавить поправку, которая равна 1 ч.

Смотрите также архив погоды в соседних городах и на ближайших метеорологических станциях:

Погода в Лунце (Австрия) (18 км)
Погода в Афленц-Курорте (Австрия) (28 км)
Погода в Лилиенфельде (Австрия) (33 км)
Погода в Капфенберг аэропорту (Австрия) (37 км)
Погода в Раксе (Австрия) (37 км)
Погода в Капфенберге (Австрия) (39 км)
Погода в Вайдхофен-ан-дер-Ибсе (Австрия) (40 км)
Погода в Пребихле (Австрия) (41 км)
Погода в Райхенау-ан-дер-Раксе (Австрия) (41 км)
Погода в Брукк-ан-дер-Муре (Австрия) (42 км)

Пояснения к столбцам:

Ветер - указаны скорость ветра в м/с - средняя за 10 мин, порывы в срок и между сроками (в фигурных скобках) и направление, откуда дует ветер: С - северный, СВ - северо-восточный, В - восточный, ЮВ - юго-восточный, Ю - южный, ЮЗ - юго-западный, З - западный, СЗ - северо-западный.
Видимость - горизонтальная дальность видимости в метрах или километрах. При видимости от 1 до 10 км при отсутствии осадков обычно наблюдается дымка, при ухудшении видимости до 1 км и менее - туман. В сухую погоду видимость может ухудшаться дымом, пылью или мглою.
Явления - указаны атмосферные явления, наблюдавшиеся в срок или в последний час перед сроком; фигурными скобками обозначены явления, наблюдавшиеся между сроками (за 1-3 часа до срока); квадратными скобками обозначены град или гололедные отложения с указанием их диаметра в мм.
Облачность - указаны через наклонную черту общая и нижняя облачность в баллах и высота нижней границы облаков в метрах; квадратными скобками обозначены формы облаков: Ci - перистые, Cs - перисто-слоистые, Cc - перисто-кучевые, Ac - высококучевые, As - высокослоистые, Sc - слоисто-кучевые, Ns - слоисто-дождевые, Cu - кучевые, Cb - кучево-дождевые. Подробнее классификацию облаков см. в Атласе облаков (PDF).
T - Температура воздуха - температура, измеренная на высоте 2 м над землей.
Td - Температура точки росы - температура, при понижении до которой содержащийся в воздухе водяной пар достигнет насыщения.
f - Относительная влажность воздуха - влажноcть воздуха, измеренная на высоте 2 м над землей.
Te - Эффективная температура - температура, которую ощущает одетый по сезону человек в тени. Характеристика душности погоды. При расчете учитывается влияние влажности воздуха и скорости ветра на теплоощущения человека.
Tes - Эффективная температура на солнце - температура, которую ощущает человек, с поправкой на солнечный нагрев. Характеристика знойности погоды. Зависит от высоты солнца над горизонтом, облачности и скорости ветра. Ночью, в пасмурную погоду, а также при ветре 12 м/с и более поправка равна нулю.
P - Атмосферное давление - приведенное к уровню моря атмосферное давление.
Po - Атмосферное давление - измеренное на уровне метеостанции атмосферное давление.
Tmin - Минимальная температура - минимум температуры воздуха на высоте 2 м над землей.
Tmax - Максимальная температура - максимум температуры воздуха на высоте 2 м над землей.
R - Количество осадков - Количество выпавших осадков за период времени, мм. При наведении курсора мыши на число - период времени, за который выпало указанное количество осадков.
R24 - Количество осадков - Количество выпавших осадков за 24 часа, мм.
S - Снежный покров - Высота снежного покрова, см. При наведении курсора мыши на число - состояние снежного покрова и степень покрытия местности в баллах.